Tracking 22779 objects as of 12-Apr-2021
HD Live streaming from Space Station
objects crossing your sky now

STARLINK 1023

Track STARLINK 1023 now!
10-day predictions
STARLINK 1023 is classified as:


NORAD ID: 44728
Int'l Code: 2019-074R
Perigee: 553.0 km
Apogee: 555.7 km
Inclination: 53.1 °
Period: 95.6 minutes
Semi major axis: 6925 km
RCS: Unknown
Launch date: November 11, 2019
Source: United States (US)
Launch site: AIR FORCE EASTERN TEST RANGE (AFETR)
aabbcc
Your satellite tracking list
Your tracking list is empty




NASA's NSSDC Master Catalog

Two Line Element Set (TLE):
1 44728U 19074R   21101.89357847 -.00000931  00000-0 -43608-4 0  9992
2 44728  53.0563 314.7798 0001961  89.0371 271.0843 15.06392922 78530
Source of the keplerian elements: AFSPC